User: anonymous   Login
Location: Unspecified
(0.0000°N, 0.0000°E)
Time: 13:28:24
(UTC+00:00)
Language:

XW-2F - Orbit

View from above orbital plane
View from above orbital plane
View from above satellite
View from above satellite

Ground track
Ground track

The orbit data is extracted from the following two-line orbital elements,

1 40910U 15049M   22277.06512252  .00013530  00000-0  54689-3 0  9993
2 40910  97.4747 283.7412 0010701 321.3736  73.2414 15.24809357389729
Epoch (UTC): 04 October 2022 01:33:46
Eccentricity: 0.0010701
inclination: 97.4747°
perigee height: 484 km
apogee height: 499 km
right ascension of ascending node: 283.7412°
argument of perigee: 321.3736°
revolutions per day: 15.24809357
mean anomaly at epoch: 73.2414°
orbit number at epoch: 38972

The dashed part of the orbit path shows where the satellite is in the earth's shadow,  

DLR